Location: Igri�s
(42.2144°N, 0.4320°W)
Time: 17:52:55
(UTC+00:00)

Meteor 2-4 Rocket - Pass Details

Date: 13 August 2020
Orbit: 798 x 909 km, 81.2° (Epoch: 19 September)

Event Time Altitude Azimuth Distance (km) Brightness Sun altitude
Rises 21:57:41 0° 347° (NNW) 3,434 7.9 -26.2°
Reaches altitude 10° 22:00:09 10° 346° (NNW) 2,476 7.0 -26.5°
Maximum altitude 22:05:42 70° 264° (W) 880 3.7 -27.0°
Enters shadow 22:06:12 66° 228° (SW) 901 3.7 -27.1°
